STARLINK-1788

operational
NORAD ID: 46689 Int'l Des: 2020-073 Owner: SPXS Country: US Constellation: starlink
LEOCIRCULARSTARLINK_TYPE

关于 STARLINK-1788

正在加载描述...

实时位置

正在加载3D地球...

即将过境

高度历史

Altitude vs Time

uPlot chart will show altitude changes over time

两行轨道根数

1 46689U 20073V 25251.55790660 .00004568 00000-0 32538-3 0 9995
2 46689 53.0560 354.8949 0001357 80.6209 279.4933 15.06395527270703
Epoch: Sep 8, 2025 • Age: 21 hours

当前状态

高度 547.1 km
速度 7.59 km/s
星下点 8.24°N, 143.51°W
发射日期 Oct 18, 2020
运行时间 4.8 years
类型 internet

技术详情

分类 Payload
质量 260.00 kg
干质量 248.00 kg
总质量 260.00 kg
长度 0.20 m
直径 2.80 m
跨度 9.00 m
形状 Box + pan
制造商 SPXS
平台类型 Starlink
阶段状态 In Orbit
所有者/国家 SPXS/US

大型星座

Loading constellations...